Retour au catalogue

FENGYUN 1C DEB

ActifPO
NORAD 31437·DEBRIS·🇨🇳 China

Lancé May 10, 1999 depuis Taiyuan Satellite Launch Center

Loading…

Prochains Passages (prochaines 24 heures)

TLE

FraisSource: Space-Track

Époque: Sep 13, 2026, 05:20 UTC

1 31437U 99025BTZ 26256.22223985  .00003877  00000-0  10984-2 0  9996
2 31437  98.8590 353.7672 0015665 153.1720 207.0284 14.46054016  4596

Suivez FENGYUN 1C DEB en temps réel avec AllMySat

Download on the App Store